Location: Newark
(39.1833°N, 3.3000°W)
Time: 22:04:10
(UTC+00:00)

Tiangong 2 - Pass Details

Date: 29 March 2019
Orbit: 378 x 389 km, 42.8° (Epoch: 21 April)

Event Time Altitude Azimuth Distance (km) Brightness Sun altitude
Rises 20:41:52 0° 241° (WSW) 2,234 5.4 -24.6°
Reaches altitude 10° 20:43:56 10° 238° (WSW) 1,383 4.2 -24.9°
Enters shadow 20:44:05 11° 238° (WSW) 1,327 4.1 -24.9°
